DateTimeUTC,F1_A11,F1_S11,BsB_S11,BsG_S11,BsR_S11,BbsB_S11,BbsG_S11,BbsR_S11,BaB_A11,BaG_A11,BaR_A11,Tu_S11,T_S11,Uu_S11,U_S11,P_S11,T1_A11
2021-11-14T19:00:00Z,00000200,21000000,,,,,,,-000.10,0000.16,0000.56,21.1,27.7,,00.0,0623.4,31.2
2021-11-14T19:01:00Z,00000200,21000000,,,,,,,0000.20,0000.07,-000.03,21.1,27.7,,00.0,0623.4,31.2
2021-11-14T19:02:00Z,00000200,21000000,,,,,,,-000.24,0000.07,-000.22,21.1,27.7,,00.0,0623.4,31.2
2021-11-14T19:03:00Z,00000200,61000000,,,,,,,0000.32,0000.02,0000.15,21.1,27.7,,00.0,0623.4,31.2
2021-11-14T19:04:00Z,00000200,41000000,0000.23,0000.21,-000.12,0000.36,0000.06,0000.27,0000.12,0000.07,0000.10,21.2,27.6,,00.0,0624.2,31.2
2021-11-14T19:05:00Z,00000200,01000000,0000.52,-000.23,-000.06,0000.63,-000.31,0000.28,-000.05,0000.26,0000.14,21.2,27.6,,00.0,0624.3,31.2
2021-11-14T19:06:00Z,00000200,01000000,0000.16,0000.37,0000.27,0000.13,-000.41,0000.43,-000.01,-000.10,0000.05,21.2,27.5,,00.0,0624.3,31.2
2021-11-14T19:07:00Z,00000200,01000000,0000.30,0000.39,-000.02,-000.27,-000.01,-000.10,0000.01,-000.42,-000.12,21.2,27.5,,00.0,0624.3,31.2
2021-11-14T19:08:00Z,00000200,01000000,0000.40,0000.07,0000.17,-000.00,-000.00,0000.07,0000.50,0000.25,0000.04,21.2,27.5,,00.0,0624.4,31.2
2021-11-14T19:09:00Z,00000200,01000000,-000.50,-000.13,0000.15,0000.43,0000.14,-000.16,-000.18,0000.63,-000.18,21.2,27.5,,00.0,0624.4,31.2
2021-11-14T19:10:00Z,00000200,01000000,-000.88,0000.02,0000.31,-000.25,0000.12,0000.58,-000.36,-000.54,0000.39,21.2,27.5,,00.0,0624.4,31.2
2021-11-14T19:11:00Z,00000200,01000000,-000.18,0000.28,0000.38,0000.33,-000.05,0000.03,0000.22,0000.07,-000.25,21.2,27.5,,00.0,0624.5,31.2
2021-11-14T19:12:00Z,00000200,01000000,-000.47,0000.07,0000.60,0000.62,0000.16,0000.20,0000.00,0000.14,-000.14,21.2,27.5,,00.0,0624.5,31.2
2021-11-14T19:13:00Z,00000200,01000000,0000.10,0000.38,0000.37,0000.16,0000.29,0000.29,0000.33,-000.02,0000.00,21.2,27.5,,00.0,0624.5,31.2
2021-11-14T19:14:00Z,00000200,01000000,-000.18,0000.02,0000.09,0000.41,0000.37,0000.19,-000.47,-000.11,0000.22,21.2,27.5,,00.0,0624.6,31.2
2021-11-14T19:15:00Z,00000200,01000000,-000.05,-000.16,0000.34,0000.27,0000.03,0000.14,0000.36,-000.23,0000.11,21.2,27.5,,00.0,0624.5,31.2
2021-11-14T19:16:00Z,00000200,01000000,-000.49,0000.14,0000.24,-000.05,-000.19,0000.05,0000.03,0000.64,-000.21,21.3,27.5,,00.0,0624.7,31.2
2021-11-14T19:17:00Z,00000200,01000000,-000.25,0000.13,0000.06,0000.60,0000.09,0000.26,-000.08,-000.31,0000.03,21.3,27.5,,00.0,0624.7,31.2
2021-11-14T19:18:00Z,00000200,01000000,0000.57,0000.16,0000.04,0000.03,0000.42,-000.14,-000.23,0000.01,-000.03,21.2,27.5,,00.0,0624.8,31.2
2021-11-14T19:19:00Z,00000200,01000000,0000.08,0000.10,0000.29,0000.64,0000.04,-000.23,0000.20,0000.08,0000.19,21.1,27.5,,00.0,0624.7,31.1
2021-11-14T19:20:00Z,00000200,01000000,0000.24,-000.05,0000.16,0000.20,0000.31,-000.07,0000.17,0000.21,0000.08,21.1,27.4,,00.0,0624.7,31.1
2021-11-14T19:21:00Z,00000200,01000000,-000.09,-000.14,-000.11,0000.03,0000.14,-000.18,-000.09,-000.18,-000.10,21.1,27.4,,00.0,0624.7,31.2
2021-11-14T19:22:00Z,00000200,01000000,-000.17,0000.03,0000.11,0000.55,0000.19,0000.07,0000.07,0000.29,0000.10,21.1,27.4,,00.0,0624.7,31.2
2021-11-14T19:23:00Z,00000200,01000000,-000.21,-000.36,0000.39,0000.12,0000.08,0000.15,0000.34,0000.02,0000.28,21.1,27.4,,00.0,0624.7,31.2
2021-11-14T19:24:00Z,00000200,01000000,0000.25,-000.20,-000.01,0000.11,0000.04,0000.16,-000.07,0000.03,-000.29,21.1,27.4,,00.0,0624.6,31.2
2021-11-14T19:25:00Z,00000200,01000000,-000.23,-000.07,0000.22,0001.02,0000.02,0000.16,-000.34,-000.15,0000.28,21.1,27.4,,00.0,0624.6,31.2
2021-11-14T19:26:00Z,00000200,01000000,0000.25,-000.04,0000.10,0000.20,0000.19,0000.19,0000.39,-000.11,-000.06,21.1,27.4,,00.0,0624.7,31.2
2021-11-14T19:27:00Z,00000200,01000000,-000.17,0000.23,0000.01,-000.16,-000.31,0000.14,-000.31,0000.25,-000.02,21.2,27.5,,00.0,0624.7,31.2
2021-11-14T19:28:00Z,00000200,01000000,-000.09,-000.03,-000.44,0000.41,-000.00,-000.27,0000.15,0000.02,0000.01,21.2,27.5,,00.0,0624.7,31.2
2021-11-14T19:29:00Z,00000200,01000000,0000.08,-000.05,-000.17,-000.34,0000.07,-000.08,0000.10,-000.07,0000.17,21.2,27.5,,00.0,0624.6,31.2
2021-11-14T19:30:00Z,00000200,01000000,-001.02,0000.09,0000.07,-000.06,-000.06,0000.27,0000.08,0000.21,-000.35,21.2,27.5,,00.0,0624.7,31.2
2021-11-14T19:31:00Z,00000200,01000000,-000.20,0000.33,0000.40,-000.00,0000.11,-000.27,0000.08,0000.15,0000.47,21.2,27.5,,00.0,0624.7,31.2
2021-11-14T19:32:00Z,00000200,01000000,-000.06,0000.29,0000.07,-000.12,-000.07,0000.07,-000.42,-000.47,-000.45,21.2,27.5,,00.0,0624.7,31.2
2021-11-14T19:33:00Z,00000200,01000000,0000.15,-000.16,0000.13,0000.58,0000.28,-000.07,0000.42,0000.19,0000.21,21.3,27.5,,00.0,0624.7,31.2
2021-11-14T19:34:00Z,00000200,01000000,0000.03,-000.09,0000.33,-000.08,0000.18,0000.48,-000.16,-000.16,0000.21,21.3,27.5,,00.0,0624.8,31.2
2021-11-14T19:35:00Z,00000200,01000000,0000.12,-000.01,0000.03,0000.42,0000.27,-000.10,0000.33,0000.33,-000.03,21.3,27.5,,00.0,0624.7,31.2
2021-11-14T19:36:00Z,00000200,01000000,-000.75,0000.12,0000.09,0000.24,0000.15,-000.14,-000.12,-000.08,-000.35,21.3,27.5,,00.0,0624.7,31.2
2021-11-14T19:37:00Z,00000200,01000000,-000.44,0000.30,0000.17,0000.00,0000.40,-000.06,-000.04,0000.06,0000.42,21.3,27.5,,00.0,0624.8,31.2
2021-11-14T19:38:00Z,00000200,01000000,-000.07,0000.10,-000.28,0000.26,-000.03,0000.43,0000.18,0000.10,-000.32,21.3,27.5,,00.0,0624.7,31.2
2021-11-14T19:39:00Z,00000200,01000000,0001.16,0000.24,0000.24,0000.80,0000.35,0000.38,0000.04,0000.03,0000.02,21.3,27.5,,00.0,0624.7,31.2
2021-11-14T19:40:00Z,00000200,01000000,0000.08,0000.06,0000.14,0000.37,-000.31,0000.18,0000.05,0000.21,0000.58,21.3,27.5,,00.0,0624.7,31.2
2021-11-14T19:41:00Z,00000200,01000000,-000.38,-000.08,0000.11,0000.03,-000.02,-000.12,-000.07,-000.22,-000.31,21.4,27.5,,00.0,0624.7,31.2
2021-11-14T19:42:00Z,00000200,01000000,0000.38,0000.44,0000.41,0000.18,-000.09,0000.14,0000.15,0000.13,0000.17,21.4,27.6,,00.0,0624.7,31.2
2021-11-14T19:43:00Z,00000200,01000000,0000.10,-000.06,0000.30,-000.37,0000.18,0000.35,0000.13,0000.33,0000.01,21.4,27.6,,00.0,0624.7,31.2
2021-11-14T19:44:00Z,00000200,01000000,-000.81,-000.10,0000.07,-000.41,0000.27,0000.07,0000.17,-000.05,0000.06,21.4,27.6,,00.0,0624.7,31.2
2021-11-14T19:45:00Z,00000200,01000000,0000.66,0000.26,0000.18,0000.02,-000.05,0000.14,-000.25,-000.17,-000.21,21.4,27.6,,00.0,0624.7,31.2
2021-11-14T19:46:00Z,00000200,01000000,-000.18,-000.05,-000.38,-000.07,-000.04,0000.12,-000.05,0000.23,0000.46,21.4,27.6,,00.0,0624.7,31.2
2021-11-14T19:47:00Z,00000200,01000000,0000.48,-000.09,0000.13,0000.20,0000.19,0000.03,0000.22,0000.11,-000.02,21.4,27.6,,00.0,0624.8,31.2
2021-11-14T19:48:00Z,00000200,01000000,0000.22,-000.27,0000.20,-000.28,-000.11,-000.11,0000.24,-000.04,0000.07,21.4,27.6,,00.0,0624.7,31.2
2021-11-14T19:49:00Z,00000200,01000000,0000.40,0000.04,0000.09,0000.13,0000.12,0000.27,-000.01,-000.06,-000.15,21.4,27.6,,00.0,0624.8,31.2
2021-11-14T19:50:00Z,00000200,01000000,0001.05,0000.26,0000.24,0000.18,-000.04,0000.18,-000.15,-000.11,-000.12,21.4,27.6,,00.0,0624.7,31.2
2021-11-14T19:51:00Z,00000200,01000000,0000.31,-000.19,-000.01,-000.23,0000.00,0000.20,0000.29,0000.55,0000.10,21.5,27.6,,00.0,0624.8,31.2
2021-11-14T19:52:00Z,00000200,01000000,0000.40,0000.02,0000.18,0000.38,0000.30,0000.11,-000.03,-000.09,0000.29,21.5,27.6,,00.0,0624.8,31.2
2021-11-14T19:53:00Z,00000200,01000000,0000.15,-000.03,-000.04,0000.22,-000.11,0000.00,-000.07,-000.09,0000.25,21.5,27.6,,00.0,0624.9,31.2
2021-11-14T19:54:00Z,00000200,01000000,0000.43,-000.02,0000.25,0000.12,0000.14,0000.20,0000.13,-000.04,-000.13,21.5,27.7,,00.0,0624.9,31.2
2021-11-14T19:55:00Z,00000200,01000000,0000.51,-000.06,0000.17,-000.46,0000.08,0000.11,-000.03,0000.14,-000.09,21.5,27.6,,00.0,0624.9,31.2
2021-11-14T19:56:00Z,00000200,01000000,0000.54,0000.11,-000.14,0000.41,0000.10,0000.08,-000.00,-000.01,0000.29,21.5,27.7,,00.0,0625.0,31.2
2021-11-14T19:57:00Z,00000200,41000000,,,,,,,0000.16,0000.15,0000.09,21.6,27.7,,00.0,0624.8,31.2
2021-11-14T19:58:00Z,00000200,61000000,,,,,,,0000.04,0000.13,-000.22,21.2,27.7,,00.0,0624.1,31.2
2021-11-14T19:59:00Z,00000200,21000000,,,,,,,-000.20,-000.35,0000.47,21.2,27.8,,00.0,0624.0,31.2
